Weather in Vidyaevo

Russia / Murmansk Oblast     69°19′03″N   32°47′46″E
temp.,
°C
wind,
m/s
gust,
m/s
humid.,
%
clouds,
%
prec.,
mm/h
press.,
hPa
HPBL,
m
17 april, sat
sat1700:00+2w9159496 0.4 1029369
03:00+2w9168473 0.4 1028273
06:00+1w71679100 0.0 1028251
09:00+3w8157998 0.0 1028429
12:00+4wnw9157971 0.0 1029615
15:00+4wnw8118296 0.0 1031686
18:00+4wnw578789 0.0 1032213
21:00+1wsw22918 0.0 103310
18 april, sun
sun1800:000sw22905 0.0 103410
03:000sw22873 0.0 103412
06:000ssw33855 0.0 103436
09:00+3ssw367855 0.0 1033186
12:00+5sw58708 0.0 1032543
15:00+6sw7866100 0.0 10321003
18:00+5sw597695 0.0 1031275
21:00+2ssw469096 0.0 103180
19 april, mon
mon1900:00+1sw478974 0.0 103099
03:00+2sw468299 0.0 102975
06:00+2wsw6138650 0.0 1028269
09:00+4sw7128327 0.0 1028467
12:00+7wsw911757 0.0 1027649
15:00+9wsw8106917 0.0 1027892
18:00+9wsw69690 0.0 1026799
21:00+6sw45810 0.0 102661
20 april, tue
tue2000:00+5ssw44862 0.0 102538
03:00+3ssw46870 0.0 102573
06:00+3ssw511880 0.0 1024196
09:00+7sw813684 0.0 1023521
12:00+10sw1012531 0.0 1021957
15:00+12sw1012505 0.0 10201344
18:00+12sw911525 0.0 10181459
21:00+9ssw611675 0.0 1018198
21 april, wed
wed2100:00+6ssw612745 0.0 1018242
03:00+5ssw6127944 0.0 1017197
06:00+4ssw51180100 0.0 1016220
09:00+7ssw7105923 0.0 1015515
12:00+9ssw894571 0.0 10141072
15:00+10ssw6643100 0.0 10131120
18:00+9s5543100 0.0 1012997
21:00+6se3457100 0.0 101071